Location: Izdebno
(52.6670°N, 16.2170°E)
Time: 12:16:56
(UTC+02:00)

A-11 Canister half - Pass Details

Date: 09 February 2023
Orbit: 1526 x 1682 km, 47.3° (Epoch: 26 March)

Event Time Altitude Azimuth Distance (km) Brightness Sun altitude
Rises 05:45:52 0° 245° (WSW) 4,677 - -15.2°
Reaches altitude 10° 05:48:57 10° 242° (WSW) 3,692 - -14.8°
Exits shadow 05:49:09 11° 242° (WSW) 3,627 10.5 -14.7°
Maximum altitude 05:57:58 59° 166° (SSE) 1,733 9.4 -13.4°
Drops below altitude 10° 06:07:07 10° 90° (E) 3,739 12.5 -12.0°
Sets 06:10:15 0° 87° (E) 4,740 13.4 -11.5°
